Zurück zum Katalog

STARLINK-34886

AktivKommunikationVLEO
NORAD 65683·PAYLOAD·🇺🇸 United States

Gestartet Sep 21, 2025 von Cape Canaveral Space Force Station

Loading…

Nächste Überflüge (nächste 24 Stunden)

TLE

AktuellSource: CelesTrak SupGP

Epoche: Sep 15, 2026, 02:41 UTC

1 65683C 25212H   26258.11229167 -.00046409  00000+0 -14926-2 0  2588
2 65683  53.1583 184.4495 0001429  84.7459 304.3114 15.31720477    17

Verfolge STARLINK-34886 in Echtzeit mit AllMySat

Download on the App Store